Tracking 35331 objects as of 16-Sep-2026
HD Live streaming from Space Station
objects crossing your sky now

STARLINK-31660

Track STARLINK-31660 now!
10-day predictions
STARLINK-31660 is classified as:


NORAD ID: 59642
Int'l Code: 2024-082M
Launch date: May 3, 2024
Source: United States (US)
Launch site: AIR FORCE EASTERN TEST RANGE (AFETR)
Your satellite tracking list
Your tracking list is empty




NASA's NSSDC Master Catalog

Two Line Element Set (TLE):
1 59642U 24082M   26258.98701584  .00002329  00000-0  94135-4 0  9999
2 59642  43.0018 104.7349 0001087 275.5098  84.5629 15.27583625134572
Source of the keplerian elements: AFSPC